(82) Alkmene
ephemeris date magn radius delta ra dec elong phase
Today24 Jun 202613.12.198 AU2.698 AU09h42m+15°21'50.7°20.9°
Opposition2 Jun 202712.12.906 AU1.892 AU16h38m-25°17'176.8°1.1°
(82) Alkmene - 2026-06-24
astro.vanbuitenen.nl


 
-1 year
-1 month
-1 day
Now
+1 day
+1 month
+1 year

The interactive orbit chart above shows the body's path through the solar system and its position at the given date. Green and blue lines are shown perpendicular to the ecliptic plane: Green if the path is above the ecliptic plane, blue if it is below. (Left-click and drag to rotate the view; Right-click and drag to move the view; Use scroll wheel to zoom in our out.)

The orbital elements of Alkmene are:

            e (Eccentricity)                : 0.2208602
            a (Semimajor axis)              : 2.7633127
            i (Inclination)                 : 2.82522
            Ω (Longitude of ascending node) : 25.38315
            ω (Argument of perihelion)      : 110.67315
            M (Mean anomaly)                : 14.24591
            Epoch                           : 2026 Jun 09

            L (Longitude of perihelion)     : -43.92067
            B (Latitude of perihelion)      : 2.64317
            P (Orbital period in years)     : 4.59            
        

The light curve chart below shows the estimated development of the minor planet's magnitude.


The all-sky chart below shows the path of the minor planet over the same period as the light curve. The current position is marked yellow.





The following chart shows the path of the minor planet in the next few days. The field of view is optimized for (~10x50) binoculars and finderscopes.




Ephemerides:
Date       Time       RA (2000)    DEC (2000)    delta   radius  elong  phase   PA    magn
2026-06-24 00:00 UT   09 42 39.0   +15 21 39     2.698    2.198   50.7   20.9   108   13.1 
2026-06-24 11:55 UT   09 43 35.3   +15 16 28     2.702    2.199   50.4   20.9   108   13.1 
2026-06-25 00:00 UT   09 44 32.3   +15 11 12     2.707    2.200   50.2   20.8   108   13.1 
2026-06-26 00:00 UT   09 46 25.6   +15 00 40     2.717    2.201   49.7   20.6   108   13.2 
2026-06-27 00:00 UT   09 48 18.8   +14 50 05     2.726    2.202   49.3   20.5   108   13.2 
2026-06-28 00:00 UT   09 50 12.1   +14 39 27     2.736    2.203   48.8   20.3   108   13.2 
2026-06-29 00:00 UT   09 52 05.4   +14 28 44     2.745    2.204   48.3   20.2   108   13.2 
2026-06-30 00:00 UT   09 53 58.6   +14 17 59     2.754    2.205   47.9   20.0   109   13.2 
2026-07-01 00:00 UT   09 55 51.8   +14 07 09     2.764    2.206   47.4   19.8   109   13.2 
2026-07-02 00:00 UT   09 57 45.0   +13 56 17     2.773    2.208   46.9   19.7   109   13.2 
2026-07-03 00:00 UT   09 59 38.2   +13 45 21     2.782    2.209   46.5   19.5   109   13.2 
2026-07-04 00:00 UT   10 01 31.4   +13 34 21     2.791    2.210   46.0   19.3   109   13.2 
2026-07-05 00:00 UT   10 03 24.5   +13 23 19     2.800    2.211   45.6   19.2   109   13.2 
2026-07-06 00:00 UT   10 05 17.6   +13 12 13     2.809    2.212   45.1   19.0   109   13.2 
2026-07-07 00:00 UT   10 07 10.7   +13 01 03     2.818    2.214   44.6   18.8   109   13.2 
2026-07-08 00:00 UT   10 09 03.7   +12 49 51     2.827    2.215   44.2   18.7   109   13.2 
2026-07-09 00:00 UT   10 10 56.8   +12 38 36     2.836    2.216   43.7   18.5   109   13.2 
2026-07-10 00:00 UT   10 12 49.7   +12 27 17     2.845    2.217   43.3   18.3   109   13.2 
2026-07-11 00:00 UT   10 14 42.7   +12 15 55     2.854    2.219   42.8   18.1   109   13.2 


    Terminology:
            
    delta:  distance between minor planet and earth in AU
    radius: distance between minor planet and sun in AU
    magn:   magnitude (brightness) estimate    
    ra:     right ascension in hours (24h = 360deg)
    dec:    declination in degrees
    elong:  elongation in degrees (angle sun-earth-minor planet)    
    phase:  phase angle in degrees (angle sun-minor planet-earth)        
    AU:     Astronomical Unit (mean distance between earth and sun: 149597870.7 km
    

Orbital elements provided by the MPC (Minor Planet Center).
Calculations by a modified version of AAPlus, a C# implementation of the AA+ project by PJ Naughter from the algorithms presented in the book "Astronomical Algorithms" by Jean Meeus.
NGC2000 dso catalog and star labels from VizieR as provided by the Strasbourg astronomical Data Center.
Tycho2 catalog from the ESO archive.